Regional Weather Roundup
Issued by NWS

Home | Current Version | Previous Version | Graphics & Text | Print | Product List | Glossary On
Versions: 1 2 3 4 5 6 7 8 9 10 11 12 13 14 15 16 17 18 19 20 21 22 23 24 25 26 27 28 29 30 31 32 33 34 35 36 37 38 39 40 41 42 43 44 45 46 47 48 49 50
000
ASUS44 KMEG 170210
RWRTN
TENNESSEE HOURLY STATE WEATHER ROUNDUP
NATIONAL WEATHER SERVICE MEMPHIS TN
900 PM CDT WED AUG 16 2017

TNZ002-004-019-021-049-052-054-088>092-170300-
WEST TENNESSEE

CITY           SKY/WX    TMP DP  RH WIND       PRES   REMARKS
MEMPHIS INTL   CLEAR     84  75  74 S6        29.97R HX  92
NWS MEMPHIS      N/A     84 N/A N/A MISG        N/A
JACKSON        PTCLDY    80  78  94 S3        29.99S
DYERSBURG      CLEAR     79  76  90 CALM      29.97S
COVINGTON      CLEAR     81  77  89 S5        29.97S
UNION CITY     CLEAR     79  75  89 CALM      29.96S
PARIS          CLEAR     79  77  94 S5        29.98S
LEXINGTON      PTCLDY    79  75  89 CALM      30.01R
SELMER         CLOUDY    79  77  94 N3        30.02R
SAVANNAH       PTCLDY    79  77  94 S5        30.01R
$$

TNZ008-025-027-028-033-062-065-066-170300-
NORTH MIDDLE TENNESSEE

CITY           SKY/WX    TMP DP  RH WIND       PRES   REMARKS
NASHVILLE      LGT RAIN  78  75  90 S8        30.02S
PORTLAND       CLOUDY    81  77  89 SW6       30.01S
CLARKSVILLE    CLOUDY    79  75  87 SW3       29.99S
SMYRNA         LGT RAIN  79  73  83 W7        30.04S
COOKEVILLE       N/A     75  73  94 CALM      30.05R
GALLATIN       CLEAR     82  75  78 CALM      30.04S
CROSSVILLE     PTCLDY    76  72  87 SW3       30.12R
$$

TNZ061-075-076-078-094-096-097-170300-
SOUTH MIDDLE TENNESSEE

CITY           SKY/WX    TMP DP  RH WIND       PRES   REMARKS
FAYETTEVILLE   MOCLDY    77  75  94 CALM      30.06R
TULLAHOMA      CLEAR     75  72  88 CALM      30.08R
WINCHESTER     CLEAR     77  75  94 CALM      30.07R
MCMINNVILLE    CLEAR     79  79 100 SW3       30.07R
COLUMBIA       PTCLDY    77  77 100 CALM      30.02S
SHELBYVILLE    PTCLDY    75  75 100 SE5       30.05S
$$

TNZ017-018-042-046-047-170300-
NORTHEAST TENNESSEE

CITY           SKY/WX    TMP DP  RH WIND       PRES   REMARKS
TRI CITIES     MOCLDY    71  71 100 CALM      30.09S
ELIZABETHTON   MOCLDY    75  72  88 E3        30.10R
$$

TNZ012-013-036-069-073-074-170300-
CENTRAL EAST TENNESSEE

CITY           SKY/WX    TMP DP  RH WIND       PRES   REMARKS
KNOXVILLE      PTCLDY    79  71  76 SW3       30.05R
OAK RIDGE      CLEAR     78  73  84 CALM      30.07R
DOWNTOWN KNOXV   N/A     75  73  94 CALM      30.04R
GATLINBURG     CLEAR     77  72  83 CALM      30.05R
MORRISTOWN     CLEAR     79  73  83 CALM      30.07R
$$

TNZ083-085-099-170300-
SOUTHEAST TENNESSEE

CITY           SKY/WX    TMP DP  RH WIND       PRES   REMARKS
CHATTANOOGA    PTCLDY    83  72  69 CALM      30.05R
DAYTON         MOCLDY    79  79 100 CALM      30.05R
$$

SKY/WX REPORTED AS FAIR MEANS FEW OR NO CLOUDS BELOW
12 THOUSAND FEET.





USA.gov is the U.S. government's official web portal to all federal, state and local government web resources and services.